period_start,C,m1,H,J0,J1,J2,J3,J4,J5,JA,JB,JC,JD,JJ,JK,JN,#
2018-02-13 00:02:07,0.14,3.42,0.00,24.03,27.54,30.69,13.88,49.87,1014.18,2024.06,2282.91,2282.80,2579.59,600.06,592.58,28.18,0000 0000 0000 0000 000000
2018-02-13 00:07:09,0.13,3.42,0.00,24.03,27.55,30.70,13.97,49.90,1014.18,2024.05,2281.20,2281.55,2578.06,600.13,592.66,28.23,0000 0000 0000 0000 000000
2018-02-13 00:12:09,0.13,3.43,0.00,24.03,27.55,30.68,13.88,49.96,1014.18,2024.02,2279.39,2280.30,2576.56,599.85,592.43,28.28,0000 0000 0000 0000 000000
2018-02-13 00:17:11,0.14,3.44,0.00,24.05,27.55,30.69,13.91,50.04,1014.18,2024.01,2277.57,2279.00,2575.07,599.81,592.26,28.33,0000 0000 0000 0000 000000
2018-02-13 00:22:12,0.15,3.45,0.00,24.06,27.55,30.70,13.90,50.02,1014.18,2024.03,2275.60,2277.65,2573.52,600.06,592.55,28.38,0000 0000 0000 0000 000000
2018-02-13 00:27:13,0.14,3.45,0.00,24.07,27.57,30.72,13.91,50.13,1014.18,2024.01,2273.59,2276.34,2571.86,600.20,592.68,28.43,0000 0000 0000 0000 000000
2018-02-13 00:32:15,0.16,3.46,0.00,24.07,27.57,30.70,13.92,50.09,1014.16,2024.01,2271.56,2274.82,2570.15,600.21,592.63,28.48,0000 0000 0000 0000 000000
2018-02-13 00:37:16,0.15,3.47,0.00,24.08,27.57,30.73,13.91,50.22,1014.15,2024.01,2269.48,2273.45,2568.52,600.23,592.72,28.53,0000 0000 0000 0000 000000
2018-02-13 00:42:17,0.14,3.48,0.00,24.10,27.58,30.74,13.88,50.15,1014.15,2024.00,2267.55,2272.09,2566.83,599.85,592.19,28.58,0000 0000 0000 0000 000000
2018-02-13 00:47:18,0.15,3.48,0.00,24.10,27.60,30.76,13.95,50.17,1014.15,2024.01,2265.63,2270.71,2565.25,600.02,592.43,28.63,0000 0000 0000 0000 000000
2018-02-13 00:52:19,0.14,3.49,0.00,24.12,27.60,30.76,13.91,50.12,1014.17,2024.00,2263.79,2269.40,2563.62,600.20,592.51,28.68,0000 0000 0000 0000 000000
2018-02-13 00:57:21,0.15,3.50,0.00,24.13,27.60,30.76,13.85,50.11,1014.17,2024.00,2261.79,2268.01,2562.03,599.65,592.04,28.73,0000 0000 0000 0000 000000
2018-02-13 01:02:22,0.15,3.51,0.00,24.14,27.61,30.76,13.89,50.16,1014.17,2024.00,2259.88,2266.66,2560.40,599.99,592.33,28.78,0000 0000 0000 0000 000000
2018-02-13 01:07:23,0.13,3.52,0.00,24.14,27.62,30.77,13.93,50.17,1014.17,2024.00,2258.07,2265.34,2558.92,599.93,592.26,28.83,0000 0000 0000 0000 000000
2018-02-13 01:12:25,0.13,3.52,0.00,24.17,27.62,30.78,13.89,50.16,1014.16,2024.00,2256.27,2264.10,2557.56,599.86,592.18,28.88,0000 0000 0000 0000 000000
2018-02-13 01:17:26,0.15,3.53,0.00,24.17,27.63,30.80,13.89,50.13,1014.16,2024.00,2254.39,2262.77,2556.00,599.94,592.21,28.93,0000 0000 0000 0000 000000
2018-02-13 01:22:27,0.15,3.54,0.00,24.17,27.65,30.80,13.95,50.13,1014.15,2023.99,2252.44,2261.44,2554.42,599.98,592.22,28.98,0000 0000 0000 0000 000000
2018-02-13 01:27:28,0.16,3.54,0.00,24.19,27.65,30.82,13.84,50.08,1014.16,2023.99,2250.45,2260.02,2552.80,599.85,592.07,29.03,0000 0000 0000 0000 000000
2018-02-13 01:32:30,0.16,3.55,0.00,24.20,27.66,30.83,13.95,50.18,1014.09,2023.99,2248.37,2258.60,2551.15,600.09,592.16,29.08,0000 0000 0000 0000 000000
2018-02-13 01:37:31,0.15,3.56,0.00,24.20,27.67,30.84,13.87,50.18,1014.10,2023.98,2246.37,2257.24,2549.51,600.07,592.29,29.13,0000 0000 0000 0000 000000
2018-02-13 01:42:32,0.18,3.57,0.00,24.21,27.67,30.86,13.88,50.13,1014.07,2023.97,2244.26,2255.74,2547.80,599.53,591.65,29.18,0000 0000 0000 0000 000000
2018-02-13 01:47:33,0.14,3.58,0.00,24.23,27.70,30.86,13.84,50.17,1014.00,2023.97,2242.28,2254.39,2546.09,599.99,592.04,29.23,0000 0000 0000 0000 000000
2018-02-13 01:52:35,0.14,3.58,0.00,24.25,27.70,30.86,13.83,50.12,1013.78,2023.98,2240.33,2253.02,2544.54,599.77,591.82,29.28,0000 0000 0000 0000 000000
2018-02-13 01:57:36,0.16,3.59,0.00,24.25,27.71,30.88,13.85,50.12,1013.81,2023.98,2238.50,2251.64,2542.92,599.62,591.55,29.33,0000 0000 0000 0000 000000
2018-02-13 02:02:37,0.19,3.60,0.00,24.26,27.72,30.89,13.97,50.27,1013.91,2023.98,2236.21,2250.07,2541.08,600.34,592.25,29.38,0000 0000 0000 0000 000000
2018-02-13 02:07:39,0.18,3.61,0.00,24.28,27.73,30.90,13.91,50.19,1013.72,2023.97,2233.68,2248.37,2539.05,600.05,591.83,29.43,0000 0000 0000 0000 000000
2018-02-13 02:12:40,0.18,3.62,0.00,24.29,27.75,30.89,13.84,50.30,1013.70,2023.94,2231.35,2246.70,2537.09,600.00,591.65,29.48,0000 0000 0000 0000 000000
2018-02-13 02:17:41,0.17,3.63,0.00,24.31,27.75,30.91,13.89,50.25,1013.72,2023.93,2229.02,2245.12,2535.24,600.11,591.83,29.53,0000 0000 0000 0000 000000
2018-02-13 02:22:42,0.19,3.64,0.00,24.32,27.76,30.93,13.92,50.30,1013.73,2023.90,2226.60,2243.50,2533.26,600.25,591.95,29.58,0000 0000 0000 0000 000000
2018-02-13 02:27:44,0.18,3.65,0.00,24.31,27.77,30.96,13.92,50.30,1013.76,2023.77,2224.18,2241.78,2531.20,599.88,591.63,29.63,0000 0000 0000 0000 000000
2018-02-13 02:32:45,0.18,3.66,0.00,24.32,27.78,30.95,13.92,50.29,1013.80,2023.64,2221.73,2240.14,2529.18,599.97,591.81,29.68,0000 0000 0000 0000 000000
2018-02-13 02:37:46,0.16,3.66,0.00,24.34,27.80,30.96,13.91,50.25,1013.81,2023.42,2219.28,2238.58,2527.17,600.09,591.78,29.73,0000 0000 0000 0000 000000
2018-02-13 02:42:47,0.17,3.67,0.00,24.35,27.80,30.97,13.98,50.42,1013.84,2023.27,2216.77,2236.82,2525.09,600.12,591.84,29.78,0000 0000 0000 0000 000000
2018-02-13 02:47:49,0.18,3.68,0.00,24.37,27.82,30.98,13.85,50.38,1013.90,2023.11,2214.25,2235.14,2523.02,599.94,591.66,29.83,0000 0000 0000 0000 000000
2018-02-13 02:52:50,0.19,3.69,0.00,24.38,27.82,31.00,13.87,50.34,1014.05,2023.06,2211.83,2233.47,2520.99,599.85,591.72,29.88,0000 0000 0000 0000 000000
2018-02-13 02:57:51,0.20,3.70,0.00,24.41,27.84,31.00,13.88,50.43,1014.10,2023.02,2209.31,2231.72,2518.91,599.60,591.42,29.93,0000 0000 0000 0000 000000
2018-02-13 03:02:53,0.19,3.71,0.00,24.43,27.85,31.02,13.88,50.41,1014.10,2023.01,2206.83,2229.94,2516.83,599.99,591.70,29.98,0000 0000 0000 0000 000000
2018-02-13 03:07:54,0.19,3.72,0.00,24.43,27.86,31.04,13.82,50.43,1014.07,2023.00,2204.36,2228.29,2514.78,599.30,591.13,30.03,0000 0000 0000 0000 000000
2018-02-13 03:12:56,0.20,3.73,0.00,24.44,27.87,31.06,13.90,50.45,1014.08,2023.00,2201.86,2226.53,2512.67,599.67,591.34,30.08,0000 0000 0000 0000 000000
2018-02-13 03:17:57,0.19,3.74,0.00,24.47,27.88,31.06,13.94,50.48,1013.89,2022.99,2199.34,2224.80,2510.65,600.24,591.69,30.13,0000 0000 0000 0000 000000
2018-02-13 03:22:59,0.19,3.75,0.00,24.47,27.90,31.07,13.90,50.44,1013.85,2022.99,2196.94,2223.13,2508.65,599.85,591.29,30.18,0000 0000 0000 0000 000000
2018-02-13 03:28:00,0.20,3.76,0.00,24.51,27.90,31.08,13.85,50.47,1013.89,2022.99,2194.40,2221.38,2506.54,599.73,591.17,30.23,0000 0000 0000 0000 000000
2018-02-13 03:33:01,0.21,3.77,0.00,24.52,27.92,31.09,13.86,50.52,1013.93,2022.99,2191.84,2219.58,2504.39,599.83,591.31,30.28,0000 0000 0000 0000 000000
2018-02-13 03:38:03,0.20,3.78,0.00,24.52,27.93,31.10,13.88,50.44,1014.02,2022.95,2189.28,2217.78,2502.25,599.84,591.32,30.33,0000 0000 0000 0000 000000
2018-02-13 03:43:05,0.20,3.79,0.00,24.54,27.95,31.12,13.90,50.53,1013.92,2022.91,2186.72,2216.02,2500.10,600.23,591.65,30.38,0000 0000 0000 0000 000000
2018-02-13 03:48:06,0.19,3.81,0.00,24.57,27.96,31.13,13.91,50.48,1013.78,2022.83,2184.15,2214.26,2498.01,600.24,591.39,30.43,0000 0000 0000 0000 000000
2018-02-13 03:53:08,0.18,3.81,0.00,24.59,27.97,31.15,13.85,50.43,1013.82,2022.62,2181.49,2212.46,2495.91,599.78,591.01,30.48,0000 0000 0000 0000 000000
2018-02-13 03:58:09,0.20,3.82,0.00,24.59,27.98,31.16,13.82,50.58,1013.73,2022.49,2178.84,2210.64,2493.90,599.93,591.18,30.53,0000 0000 0000 0000 000000
2018-02-13 04:03:10,0.18,3.83,0.00,24.61,28.00,31.19,13.86,50.52,1013.75,2022.23,2176.21,2208.82,2491.77,600.00,591.11,30.58,0000 0000 0000 0000 000000
2018-02-13 04:08:11,0.20,3.84,0.00,24.62,28.01,31.19,13.88,50.54,1013.99,2022.09,2173.62,2206.97,2489.55,600.10,591.31,30.63,0000 0000 0000 0000 000000
2018-02-13 04:13:12,0.20,3.85,0.00,24.65,28.02,31.21,13.93,50.47,1014.03,2022.06,2171.06,2205.15,2487.43,600.26,591.49,30.68,0000 0000 0000 0000 000000
2018-02-13 04:18:14,0.21,3.86,0.00,24.64,28.03,31.23,13.87,50.55,1014.13,2022.03,2168.45,2203.32,2485.21,599.98,591.32,30.73,0000 0000 0000 0000 000000
2018-02-13 04:23:15,0.22,3.88,0.00,24.65,28.05,31.25,13.90,50.63,1014.17,2022.02,2165.74,2201.46,2482.93,600.07,591.43,30.78,0000 0000 0000 0000 000000
2018-02-13 04:28:16,0.22,3.89,0.00,24.66,28.06,31.25,13.86,50.41,1014.15,2022.00,2163.12,2199.58,2480.74,599.96,591.43,30.84,0000 0000 0000 0000 000000
2018-02-13 04:33:18,0.22,3.90,0.00,24.67,28.07,31.26,13.87,50.51,1014.17,2022.00,2160.42,2197.69,2478.51,599.88,591.15,30.89,0000 0000 0000 0000 000000
2018-02-13 04:38:19,0.21,3.91,0.00,24.68,28.09,31.28,13.85,50.32,1014.17,2022.00,2157.77,2195.89,2476.33,599.89,591.21,30.94,0000 0000 0000 0000 000000
2018-02-13 04:43:20,0.22,3.92,0.00,24.69,28.10,31.29,13.89,50.42,1014.17,2022.00,2155.11,2194.03,2474.09,599.92,591.11,30.99,0000 0000 0000 0000 000000
2018-02-13 04:48:21,0.22,3.93,0.00,24.71,28.11,31.31,13.89,50.35,1014.18,2022.00,2152.38,2192.18,2471.84,599.44,590.77,31.04,0000 0000 0000 0000 000000
2018-02-13 04:53:23,0.23,3.94,0.00,24.72,28.12,31.31,13.92,50.42,1014.19,2022.00,2149.60,2190.22,2469.52,600.00,591.12,31.09,0000 0000 0000 0000 000000
2018-02-13 04:58:24,0.23,3.95,0.00,24.72,28.13,31.33,13.91,50.40,1014.19,2021.98,2146.74,2188.26,2467.25,600.09,591.21,31.14,0000 0000 0000 0000 000000
2018-02-13 05:03:25,0.24,3.97,0.00,24.73,28.15,31.35,13.86,50.48,1014.19,2021.98,2143.87,2186.27,2464.86,599.85,590.98,31.19,0000 0000 0000 0000 000000
2018-02-13 05:08:27,0.25,3.98,0.00,24.74,28.16,31.35,13.92,50.50,1014.22,2021.96,2140.86,2184.17,2462.36,600.17,591.26,31.24,0000 0000 0000 0000 000000
2018-02-13 05:13:28,0.25,3.99,0.00,24.76,28.17,31.37,13.84,50.49,1014.27,2021.81,2137.77,2181.97,2459.75,599.90,591.07,31.29,0000 0000 0000 0000 000000
2018-02-13 05:18:29,0.23,4.00,0.00,24.76,28.17,31.38,13.86,50.50,1014.35,2021.67,2134.75,2179.76,2457.17,599.88,591.16,31.34,0000 0000 0000 0000 000000
2018-02-13 05:23:31,0.23,4.02,0.00,24.77,28.20,31.39,13.89,50.48,1014.37,2021.56,2131.80,2177.69,2454.73,600.04,591.06,31.39,0000 0000 0000 0000 000000
2018-02-13 05:28:32,0.22,4.03,0.00,24.80,28.20,31.41,13.90,50.44,1014.36,2021.29,2128.89,2175.65,2452.30,600.21,591.33,31.44,0000 0000 0000 0000 000000
2018-02-13 05:33:33,0.22,4.04,0.00,24.79,28.22,31.42,13.94,50.58,1014.33,2021.14,2125.92,2173.68,2449.84,600.32,591.44,31.49,0000 0000 0000 0000 000000
2018-02-13 05:38:35,0.24,4.05,0.00,24.80,28.22,31.42,13.89,50.46,1014.38,2021.05,2122.91,2171.60,2447.42,599.96,591.14,31.54,0000 0000 0000 0000 000000
2018-02-13 05:43:36,0.25,4.06,0.00,24.80,28.24,31.44,13.84,50.55,1014.36,2021.00,2119.90,2169.47,2444.94,600.03,591.07,31.59,0000 0000 0000 0000 000000
2018-02-13 05:48:38,0.26,4.08,0.00,24.80,28.25,31.45,13.83,50.57,1014.44,2021.00,2116.86,2167.34,2442.38,600.14,591.36,31.64,0000 0000 0000 0000 000000
2018-02-13 05:53:39,0.26,4.09,0.00,24.81,28.26,31.47,13.94,50.54,1014.58,2021.01,2113.84,2165.21,2439.87,600.10,591.27,31.69,0000 0000 0000 0000 000000
2018-02-13 05:58:40,0.24,4.10,0.00,24.81,28.27,31.47,13.89,50.48,1014.64,2021.00,2110.94,2163.14,2437.39,599.93,591.14,31.74,0000 0000 0000 0000 000000
2018-02-13 06:03:41,0.24,4.11,0.00,24.82,28.28,31.48,13.84,50.52,1014.62,2021.00,2108.20,2161.16,2435.01,599.86,590.97,31.79,0000 0000 0000 0000 000000
2018-02-13 06:08:42,0.25,4.13,0.00,24.82,28.30,31.50,13.98,50.55,1014.65,2020.99,2105.36,2159.11,2432.61,600.27,591.55,31.84,0000 0000 0000 0000 000000
2018-02-13 06:13:44,0.24,4.14,0.00,24.82,28.30,31.50,13.93,50.56,1014.65,2020.98,2102.51,2157.03,2430.30,600.11,591.36,31.89,0000 0000 0000 0000 000000
2018-02-13 06:18:45,0.24,4.15,0.00,24.82,28.32,31.51,13.86,50.57,1014.66,2020.95,2099.64,2155.06,2427.90,600.31,591.60,31.94,0000 0000 0000 0000 000000
2018-02-13 06:23:46,0.25,4.16,0.00,24.85,28.32,31.51,13.95,50.74,1014.66,2020.96,2096.68,2152.98,2425.39,600.25,591.41,31.99,0000 0000 0000 0000 000000
2018-02-13 06:28:47,0.25,4.18,0.00,24.85,28.32,31.52,13.85,50.63,1014.66,2020.92,2093.75,2150.92,2422.99,600.09,591.30,32.04,0000 0000 0000 0000 000000
2018-02-13 06:33:49,0.22,4.19,0.00,24.86,28.35,31.53,13.84,50.58,1014.66,2020.82,2090.91,2148.92,2420.61,599.85,590.96,32.09,0000 0000 0000 0000 000000
2018-02-13 06:38:50,0.23,4.20,0.00,24.86,28.35,31.53,13.89,50.57,1014.66,2020.77,2088.11,2146.97,2418.28,600.05,591.27,32.14,0000 0000 0000 0000 000000
2018-02-13 06:43:51,0.20,4.21,0.00,24.87,28.35,31.54,13.89,50.65,1014.67,2020.56,2085.28,2145.04,2416.00,599.99,591.19,32.19,0000 0000 0000 0000 000000
2018-02-13 06:48:52,0.21,4.22,0.00,24.87,28.37,31.56,13.91,50.68,1014.67,2020.19,2082.48,2143.05,2413.63,599.99,591.17,32.24,0000 0000 0000 0000 000000
2018-02-13 06:53:54,0.23,4.23,0.00,24.87,28.37,31.58,13.89,50.73,1014.67,2020.14,2079.69,2141.12,2411.35,599.95,591.12,32.29,0000 0000 0000 0000 000000
2018-02-13 06:58:55,0.23,4.24,0.00,24.87,28.37,31.57,13.83,50.71,1014.68,2020.07,2076.94,2139.19,2409.08,599.73,590.93,32.34,0000 0000 0000 0000 000000
2018-02-13 07:03:57,0.22,4.26,0.00,24.89,28.39,31.58,13.81,50.69,1014.67,2020.02,2074.22,2137.34,2406.87,600.13,591.16,32.39,0000 0000 0000 0000 000000
2018-02-13 07:08:58,0.22,4.27,0.00,24.89,28.40,31.59,13.94,50.63,1014.68,2020.02,2071.52,2135.52,2404.68,600.29,591.41,32.44,0000 0000 0000 0000 000000
2018-02-13 07:13:59,0.24,4.28,0.00,24.87,28.40,31.60,13.96,50.67,1014.68,2020.00,2068.78,2133.64,2402.43,600.29,591.52,32.49,0000 0000 0000 0000 000000
2018-02-13 07:19:00,0.22,4.29,0.00,24.89,28.41,31.60,13.88,50.65,1014.70,2020.00,2066.12,2131.80,2400.30,600.29,591.26,32.54,0000 0000 0000 0000 000000
2018-02-13 07:24:01,0.23,4.31,0.00,24.91,28.42,31.62,13.85,50.67,1014.78,2020.00,2063.41,2129.96,2398.07,600.02,591.10,32.59,0000 0000 0000 0000 000000
2018-02-13 07:29:03,0.22,4.31,0.00,24.92,28.42,31.63,13.89,50.73,1014.75,2020.00,2060.75,2128.15,2395.91,599.76,590.88,32.64,0000 0000 0000 0000 000000
2018-02-13 07:34:04,0.23,4.33,0.00,24.92,28.42,31.63,13.86,50.67,1014.94,2020.00,2058.10,2126.35,2393.70,600.11,591.32,32.70,0000 0000 0000 0000 000000
2018-02-13 07:39:05,0.23,4.34,0.00,24.91,28.44,31.63,13.94,50.75,1015.01,2020.00,2055.40,2124.55,2391.53,600.34,591.63,32.75,0000 0000 0000 0000 000000
2018-02-13 07:44:07,0.23,4.35,0.00,24.92,28.45,31.64,13.84,50.69,1015.10,2020.00,2052.69,2122.72,2389.35,599.81,591.01,32.80,0000 0000 0000 0000 000000
2018-02-13 07:49:08,0.22,4.36,0.00,24.93,28.45,31.65,13.94,50.71,1015.15,2020.00,2050.04,2120.90,2387.21,600.13,591.45,32.85,0000 0000 0000 0000 000000
2018-02-13 07:54:09,0.22,4.38,0.00,24.92,28.45,31.66,13.90,50.76,1015.15,2020.00,2047.49,2119.15,2385.14,600.14,591.48,32.90,0000 0000 0000 0000 000000
2018-02-13 07:59:10,0.21,4.39,0.00,24.94,28.46,31.66,13.89,50.76,1015.15,2020.00,2045.15,2117.45,2383.08,600.04,591.37,32.95,0000 0000 0000 0000 000000
2018-02-13 08:04:12,0.23,4.40,0.00,24.94,28.47,31.67,13.92,50.76,1015.15,2020.00,2042.55,2115.71,2380.97,600.05,591.39,33.00,0000 0000 0000 0000 000000
2018-02-13 08:09:13,0.22,4.41,0.00,24.95,28.47,31.67,13.90,50.73,1015.15,2019.99,2039.96,2113.94,2378.90,600.10,591.30,33.05,0000 0000 0000 0000 000000
2018-02-13 08:14:14,0.22,4.42,0.00,24.94,28.47,31.67,13.83,50.77,1015.15,2019.99,2037.31,2112.21,2376.81,599.82,591.18,33.10,0000 0000 0000 0000 000000
2018-02-13 08:19:16,0.21,4.43,0.00,24.92,28.49,31.68,13.87,50.87,1015.15,2019.99,2034.74,2110.62,2374.77,599.76,591.07,33.15,0000 0000 0000 0000 000000
2018-02-13 08:24:17,0.21,4.44,0.00,24.94,28.50,31.68,13.98,50.97,1015.15,2019.97,2032.24,2109.00,2372.74,600.21,591.42,33.20,0000 0000 0000 0000 000000
2018-02-13 08:29:18,0.21,4.45,0.00,24.95,28.50,31.68,13.85,50.89,1015.15,2019.98,2029.71,2107.40,2370.80,600.03,591.31,33.25,0000 0000 0000 0000 000000
2018-02-13 08:34:19,0.23,4.46,0.00,24.95,28.50,31.69,13.95,50.92,1015.16,2019.98,2027.20,2105.76,2368.82,600.43,591.65,33.30,0000 0000 0000 0000 000000
2018-02-13 08:39:20,0.20,4.47,0.00,24.95,28.50,31.69,13.87,50.92,1015.18,2019.96,2024.71,2104.12,2366.98,599.78,591.23,33.35,0000 0000 0000 0000 000000
2018-02-13 08:44:21,0.22,4.49,0.00,24.95,28.50,31.70,13.90,50.87,1015.24,2019.96,2022.24,2102.50,2365.09,599.65,590.96,33.40,0000 0000 0000 0000 000000
2018-02-13 08:49:23,0.20,4.50,0.00,24.95,28.51,31.71,13.84,50.84,1015.40,2019.94,2019.82,2100.89,2363.18,599.75,591.17,33.45,0000 0000 0000 0000 000000
2018-02-13 08:54:23,0.19,4.51,0.00,24.95,28.52,31.71,13.93,50.83,1015.46,2019.91,2017.39,2099.39,2361.32,599.89,591.27,33.50,0000 0000 0000 0000 000000
2018-02-13 08:59:25,0.21,4.52,0.00,24.95,28.52,31.70,13.87,50.72,1015.50,2019.90,2015.06,2097.80,2359.47,599.69,591.15,33.56,0000 0000 0000 0000 000000
2018-02-13 09:04:26,0.19,4.53,0.00,24.95,28.52,31.71,13.90,50.73,1015.60,2019.87,2012.58,2096.31,2357.58,600.01,591.47,33.61,0000 0000 0000 0000 000000
2018-02-13 09:09:28,0.22,4.54,0.00,24.95,28.52,31.71,13.87,50.95,1015.63,2019.87,2010.15,2094.77,2355.73,599.90,591.47,33.66,0000 0000 0000 0000 000000
2018-02-13 09:14:29,0.21,4.55,0.00,24.96,28.54,31.72,13.95,51.02,1015.63,2019.88,2007.64,2093.22,2353.83,600.31,591.86,33.71,0000 0000 0000 0000 000000
2018-02-13 09:19:30,0.19,4.56,0.00,24.96,28.55,31.73,14.02,50.96,1015.63,2019.73,2005.12,2091.56,2351.90,600.54,592.14,33.76,0000 0000 0000 0000 000000
2018-02-13 09:24:31,0.18,4.57,0.00,24.95,28.55,31.73,13.96,51.02,1015.64,2019.47,2002.67,2089.99,2350.00,600.53,592.03,33.81,0000 0000 0000 0000 000000
2018-02-13 09:29:33,0.19,4.58,0.00,24.94,28.55,31.72,13.89,50.95,1015.61,2019.35,2000.25,2088.41,2348.04,599.57,591.01,33.86,0000 0000 0000 0000 000000
2018-02-13 09:34:34,0.21,4.59,0.00,24.95,28.55,31.72,13.92,50.89,1015.63,2019.30,1997.83,2086.84,2346.12,599.89,591.41,33.91,0000 0000 0000 0000 000000
2018-02-13 09:39:35,0.17,4.60,0.00,24.96,28.56,31.73,13.96,50.83,1015.64,2019.12,1995.48,2085.39,2344.34,600.39,591.93,33.96,0000 0000 0000 0000 000000
2018-02-13 09:44:37,0.19,4.61,0.00,24.96,28.57,31.73,13.83,50.87,1015.64,2019.06,1993.22,2083.89,2342.58,599.74,591.28,34.01,0000 0000 0000 0000 000000
2018-02-13 09:49:38,0.20,4.62,0.00,24.97,28.57,31.74,13.92,50.88,1015.64,2019.04,1991.00,2082.49,2340.84,600.13,591.61,34.06,0000 0000 0000 0000 000000
2018-02-13 09:54:39,0.17,4.63,0.00,24.97,28.57,31.73,13.92,50.92,1015.64,2019.04,1988.78,2081.15,2339.21,600.07,591.57,34.11,0000 0000 0000 0000 000000
2018-02-13 09:59:41,0.20,4.64,0.00,24.96,28.57,31.74,13.78,50.83,1015.64,2019.02,1986.49,2079.65,2337.46,599.70,591.10,34.16,0000 0000 0000 0000 000000
2018-02-13 10:04:42,0.18,4.65,0.00,24.97,28.58,31.75,13.89,50.85,1015.64,2019.03,1984.35,2078.35,2335.77,599.72,591.26,34.21,0000 0000 0000 0000 000000
2018-02-13 10:09:43,0.17,4.66,0.00,24.97,28.59,31.76,13.94,50.91,1015.64,2019.00,1982.36,2076.94,2334.08,600.07,591.55,34.26,0000 0000 0000 0000 000000
2018-02-13 10:14:44,0.19,4.66,0.00,24.97,28.60,31.74,13.85,50.98,1015.64,2019.00,1980.21,2075.60,2332.46,600.06,591.66,34.31,0000 0000 0000 0000 000000
2018-02-13 10:19:46,0.18,4.67,0.00,24.98,28.60,31.76,13.99,51.02,1015.64,2019.00,1978.07,2074.28,2330.82,600.48,591.95,34.36,0000 0000 0000 0000 000000
2018-02-13 10:24:47,0.18,4.68,0.00,24.97,28.60,31.76,13.90,51.08,1015.65,2019.01,1975.93,2072.90,2329.24,600.03,591.54,34.41,0000 0000 0000 0000 000000
2018-02-13 10:29:48,0.19,4.69,0.00,24.97,28.60,31.75,13.91,51.07,1015.65,2019.02,1973.81,2071.68,2327.68,600.08,591.67,34.47,0000 0000 0000 0000 000000
2018-02-13 10:34:50,0.18,4.70,0.00,24.97,28.60,31.77,13.93,51.17,1015.65,2019.00,1971.65,2070.40,2326.08,600.16,591.56,34.52,0000 0000 0000 0000 000000
2018-02-13 10:39:51,0.17,4.71,0.00,24.98,28.60,31.75,13.83,51.05,1015.65,2019.00,1969.55,2069.02,2324.51,600.11,591.64,34.57,0000 0000 0000 0000 000000
2018-02-13 10:44:52,0.18,4.72,0.00,25.00,28.60,31.77,13.83,51.08,1015.67,2019.00,1967.55,2067.77,2322.87,600.07,591.61,34.62,0000 0000 0000 0000 000000
2018-02-13 10:49:53,0.18,4.73,0.00,25.00,28.60,31.77,13.97,51.13,1015.79,2019.00,1965.46,2066.53,2321.32,600.28,591.78,34.67,0000 0000 0000 0000 000000
2018-02-13 10:54:54,0.16,4.74,0.00,25.00,28.61,31.76,13.89,51.06,1015.78,2019.00,1963.50,2065.34,2319.81,599.75,591.30,34.72,0000 0000 0000 0000 000000
2018-02-13 10:59:56,0.16,4.75,0.00,25.00,28.62,31.77,13.98,51.17,1015.68,2019.00,1961.55,2064.14,2318.38,600.20,591.69,34.77,0000 0000 0000 0000 000000
2018-02-13 11:04:56,0.16,4.76,0.00,25.00,28.62,31.78,13.93,51.08,1015.74,2019.00,1959.63,2062.97,2316.92,600.19,591.74,34.82,0000 0000 0000 0000 000000
2018-02-13 11:09:58,0.17,4.76,0.00,25.00,28.62,31.77,13.92,51.10,1015.98,2019.00,1957.75,2061.81,2315.55,599.80,591.48,34.87,0000 0000 0000 0000 000000
2018-02-13 11:14:59,0.17,4.77,0.00,25.00,28.62,31.77,14.05,51.14,1016.11,2019.00,1955.80,2060.68,2314.06,600.36,592.11,34.92,0000 0000 0000 0000 000000
2018-02-13 11:20:00,0.17,4.78,0.00,25.00,28.62,31.78,13.92,51.04,1016.13,2019.00,1953.86,2059.53,2312.62,600.06,591.79,34.97,0000 0000 0000 0000 000000
2018-02-13 11:25:01,0.15,4.79,0.00,25.00,28.62,31.79,14.03,51.08,1016.13,2018.99,1951.95,2058.45,2311.27,600.21,591.92,35.02,0000 0000 0000 0000 000000
2018-02-13 11:30:02,0.16,4.80,0.00,25.01,28.62,31.80,13.88,51.05,1016.13,2018.99,1950.01,2057.27,2309.81,599.79,591.69,35.07,0000 0000 0000 0000 000000
2018-02-13 11:35:04,0.15,4.81,0.00,25.00,28.62,31.78,13.90,51.02,1016.14,2018.99,1948.18,2056.26,2308.50,600.00,591.75,35.12,0000 0000 0000 0000 000000
2018-02-13 11:40:05,0.15,4.81,0.00,25.00,28.62,31.79,13.91,51.06,1016.14,2018.99,1946.30,2055.14,2307.18,599.91,591.68,35.17,0000 0000 0000 0000 000000
2018-02-13 11:45:06,0.15,4.82,0.00,25.01,28.62,31.81,13.87,51.19,1016.13,2018.99,1944.47,2054.04,2305.77,599.71,591.50,35.22,0000 0000 0000 0000 000000
2018-02-13 11:50:07,0.17,4.83,0.00,25.01,28.62,31.80,13.98,51.16,1016.14,2018.99,1942.51,2052.89,2304.34,600.02,591.76,35.27,0000 0000 0000 0000 000000
2018-02-13 11:55:08,0.17,4.84,0.00,25.02,28.62,31.78,13.90,51.24,1016.13,2018.99,1940.54,2051.69,2302.93,599.72,591.50,35.32,0000 0000 0000 0000 000000
2018-02-13 12:00:10,0.16,4.85,0.00,25.03,28.62,31.79,13.85,51.27,1016.14,2018.99,1938.67,2050.59,2301.59,599.85,591.61,35.38,0000 0000 0000 0000 000000
2018-02-13 12:05:11,0.15,4.86,0.00,25.03,28.63,31.80,13.84,51.25,1016.14,2018.99,1936.83,2049.48,2300.24,599.68,591.41,35.43,0000 0000 0000 0000 000000
2018-02-13 12:10:12,0.15,4.86,0.00,25.03,28.64,31.80,13.84,51.24,1016.14,2018.99,1934.97,2048.40,2298.84,599.94,591.60,35.48,0000 0000 0000 0000 000000
2018-02-13 12:15:13,0.15,4.87,0.00,25.04,28.65,31.81,13.89,51.29,1016.14,2018.99,1933.17,2047.20,2297.53,600.01,591.69,35.53,0000 0000 0000 0000 000000
2018-02-13 12:20:15,0.14,4.88,0.00,25.04,28.65,31.82,13.95,51.43,1016.14,2018.99,1931.38,2046.53,2296.20,600.23,591.88,35.58,0000 0000 0000 0000 000000
2018-02-13 12:25:16,0.16,4.89,0.00,25.05,28.65,31.81,13.83,51.30,1016.14,2018.99,1929.51,2045.39,2294.81,599.75,591.46,35.63,0000 0000 0000 0000 000000
2018-02-13 12:30:17,0.16,4.90,0.00,25.05,28.65,31.81,13.92,51.34,1016.14,2018.98,1927.64,2044.27,2293.40,600.00,591.65,35.68,0000 0000 0000 0000 000000
2018-02-13 12:35:18,0.15,4.90,0.00,25.06,28.65,31.83,13.91,51.33,1016.20,2018.98,1925.79,2043.26,2292.05,600.07,591.75,35.73,0000 0000 0000 0000 000000
2018-02-13 12:40:20,0.15,4.91,0.00,25.06,28.65,31.84,13.92,51.38,1016.23,2018.99,1924.06,2042.21,2290.79,600.00,591.73,35.78,0000 0000 0000 0000 000000
2018-02-13 12:45:21,0.15,4.92,0.00,25.07,28.66,31.82,13.96,51.53,1016.31,2018.98,1922.28,2041.25,2289.50,600.14,591.83,35.83,0000 0000 0000 0000 000000
2018-02-13 12:50:23,0.15,4.93,0.00,25.08,28.67,31.83,13.95,51.49,1016.45,2018.98,1920.48,2040.19,2288.26,599.98,591.81,35.88,0000 0000 0000 0000 000000
2018-02-13 12:55:24,0.16,4.94,0.00,25.09,28.67,31.83,13.93,51.32,1016.52,2018.97,1918.71,2039.14,2286.88,600.27,592.00,35.93,0000 0000 0000 0000 000000